[[{"header":{"parameterUnit":"m.s-1","parameterCategory":1,"la1":30.2991,"la2":30.254,"lo1":-89.0895,"lo2":-89.0444,"dy":0.0017,"dx":0.0017,"nx":28,"ny":28,"refTime":"2024-03-01T09:00:00:Z","depth":0,"parameterNumber":2,"parameterNumberName":"U-component_of_WINDS"},"data":[0,0,0,0,0,0,0,0,0,0,0,0,0,0,0,0,0,0,0,0,0,0,0,0,0,0,0,0,0,0,0,0,0,0,0,0,0,0,0,0,0,0,0,0,0,0,0,0,0,0,0,0,0,0,0,0,0,0,0.4117,0.4117,0,0.4111,0.4111,0.4111,0.4109,0.4109,0.4109,0.4109,0.4101,0.4101,0.4101,0,0,0,0,0,0,0,0,0,0,0,0,0,0.4127,0.4127,0.4117,0.4117,0.4117,0.4111,0.4111,0.4111,0.4109,0.4109,0.4109,0.4109,0.4101,0.4101,0.4101,0,0,0,0,0,0,0,0,0,0,0,0,0,0.4122,0.4127,0.4117,0.4116,0.4115,0.4111,0.4111,0.4111,0.4109,0.4109,0.4109,0.4109,0.4101,0.4101,0.4101,0.4097,0,0,0.4099,0.4099,0,0,0,0,0,0,0,0,0.4122,0.4122,0.4116,0.4116,0.4115,0.4111,0.4111,0.4106,0.4109,0.4111,0.4109,0.4109,0.4104,0.4104,0.4102,0.4097,0.4097,0.4099,0.4099,0.4099,0.4099,0,0,0,0,0,0,0,0.4123,0.4122,0.4115,0.4116,0.4116,0.4115,0.4114,0.411,0.4107,0.4111,0.4111,0.411,0.4104,0.4103,0.4102,0.4096,0.4099,0.4099,0.4099,0.4099,0.4088,0.4088,0,0,0,0,0,0,0.4123,0.4122,0.4115,0.4115,0.4119,0.4114,0.4114,0.4112,0.4108,0.4107,0.411,0.411,0.4103,0.4102,0.4102,0.4097,0.4099,0.4099,0.4098,0.4088,0.4088,0.4088,0,0,0,0,0,0,0.4124,0.4123,0.4115,0.4118,0.4117,0.4114,0.4113,0.4112,0.4111,0.4107,0.4106,0.4109,0.4103,0.4102,0.4098,0.4097,0.4099,0.4098,0.4088,0.4088,0.4088,0.4089,0,0,0,0,0,0,0.4124,0.4123,0.4122,0.4118,0.4117,0.4113,0.4112,0.4112,0.411,0.411,0.4106,0.4105,0.4103,0.4099,0.4098,0.4097,0.4098,0.4088,0.4088,0.4088,0.4089,0.4089,0.4089,0,0,0,0,0,0.4124,0.4122,0.4122,0.4121,0.4116,0.4112,0.4112,0.411,0.411,0.4109,0.4106,0.4105,0.4097,0.4099,0.4098,0.4096,0.4088,0.4088,0.4088,0.4089,0.4089,0.4089,0,0,0,0,0,0,0.4125,0.4122,0.4121,0.4118,0.4116,0.4112,0.4111,0.411,0.4107,0.4107,0.4104,0.4103,0.4099,0.4097,0.4099,0.4092,0.4093,0.4092,0.4094,0.4094,0.4094,0.4094,0.4098,0,0,0,0,0,0.4125,0.4123,0.412,0.4118,0.4116,0.4114,0.4112,0.4111,0.4108,0.4107,0.4104,0.4101,0.4098,0.4096,0.4092,0.4089,0.4087,0.4087,0.4087,0.4087,0.4086,0.4084,0.4083,0.4087,0.4087,0.4087,0,0,0.4125,0.4123,0.4122,0.4118,0.4116,0.4113,0.4113,0.411,0.4108,0.4106,0.4102,0.41,0.4097,0.4093,0.4091,0.4091,0.4085,0.4087,0.4086,0.4086,0.4084,0.4083,0.4083,0.4087,0.4087,0.4087,0,0,0.4123,0.4122,0.4119,0.4117,0.4114,0.4112,0.4112,0.4108,0.4107,0.4103,0.4102,0.4099,0.4094,0.4091,0.4089,0.4086,0.4085,0.4085,0.4084,0.4082,0.4082,0.4081,0.408,0.408,0.4085,0.4085,0.4085,0,0.4123,0.412,0.4118,0.4115,0.4114,0.4112,0.411,0.4108,0.4103,0.4102,0.4102,0.4095,0.4093,0.4088,0.4087,0.4086,0.4085,0.4085,0.4082,0.4082,0.4081,0.408,0.4079,0.4085,0.4085,0.4085,0.4085,0,0.412,0.4117,0.4116,0.4112,0.411,0.4107,0.4105,0.4103,0.4102,0.41,0.4096,0.4093,0.4089,0.4088,0.4087,0.4083,0.4083,0.4083,0.4083,0.4081,0.408,0.4079,0.4085,0.4085,0.4085,0.4085,0,0,0.4118,0.4114,0.4113,0.4112,0.4108,0.4106,0.4103,0.41,0.4098,0.4095,0.4092,0.4088,0.4087,0.4085,0.4083,0.4081,0.4079,0.4081,0.4081,0.4081,0.4074,0.4074,0.4074,0.4078,0.4078,0.4078,0.4074,0,0.4116,0.4111,0.411,0.4106,0.4103,0.4102,0.4099,0.4096,0.4094,0.4092,0.4089,0.4086,0.4086,0.4084,0.4082,0.408,0.4077,0.408,0.4075,0.4075,0.4076,0.4073,0.4073,0.407,0.4074,0.4074,0.4074,0,0.4113,0.411,0.4106,0.4102,0.4101,0.4099,0.4096,0.4093,0.409,0.4089,0.4086,0.4085,0.4081,0.4082,0.4076,0.4078,0.4076,0.4074,0.4074,0.4073,0.4074,0.4072,0.4069,0.4068,0.4073,0.4073,0.4073,0,0.4112,0.4107,0.4104,0.4103,0.4099,0.4097,0.4095,0.4092,0.409,0.4087,0.4086,0.4082,0.408,0.4077,0.4074,0.4075,0.4069,0.4069,0.4067,0.4067,0.4066,0.4066,0.4062,0.4065,0.4065,0.4065,0.4065,0,0.4109,0.4107,0.4104,0.4102,0.4099,0.4097,0.4093,0.4091,0.4089,0.4086,0.4084,0.4082,0.4078,0.4075,0.4073,0.4069,0.4068,0.4066,0.4066,0.4067,0.4067,0.4065,0.4065,0.4065,0.4065,0.4065,0.4065,0,0.4108,0.4106,0.4102,0.4099,0.4098,0.4096,0.4093,0.409,0.4088,0.4085,0.4084,0.4081,0.4077,0.4074,0.4069,0.4067,0.4063,0.4062,0.4064,0.4064,0.4062,0.4062,0.4056,0.4055,0.4059,0.4059,0.4059,0,0.4106,0.4104,0.4101,0.4099,0.4097,0.4094,0.4092,0.409,0.4088,0.4084,0.4082,0.4078,0.4075,0.4069,0.4066,0.4062,0.4061,0.4059,0.406,0.4061,0.406,0.406,0.406,0.4059,0.4059,0.4059,0.4059,0,0.4103,0.4102,0.41,0.4097,0.4094,0.4092,0.4089,0.4088,0.4085,0.4082,0.4079,0.4076,0.4071,0.4067,0.4063,0.406,0.4059,0.4059,0.4058,0.4058,0.4059,0.4058,0.4063,0.4059,0.4059,0.4059,0.4059,0.4059,0.4101,0.41,0.4097,0.4094,0.4092,0.4089,0.4087,0.4085,0.4082,0.4078,0.4076,0.4072,0.4069,0.4063,0.406,0.4057,0.4057,0.4056,0.4055,0.4055,0.4055,0.406,0.4056,0.4056,0.4056,0.4056,0.4056,0,0.4098,0.4097,0.4094,0.409,0.4088,0.4087,0.4084,0.4082,0.4079,0.4076,0.4073,0.4068,0.4064,0.4061,0.4056,0.4054,0.4053,0.4053,0.4053,0.4052,0.4055,0.4056,0.4054,0.4054,0.4054,0.4054,0.4054,0.4054,0.4097,0.4093,0.4092,0.4087,0.4085,0.4082,0.408,0.4077,0.4075,0.407,0.4067,0.4065,0.4062,0.4057,0.4053,0.4052,0.405,0.405,0.4049,0.4052,0.4052,0.4052,0.4053,0.405,0.405,0.4046,0.4046,0.4046]},{"header":{"parameterUnit":"m.s-1","parameterCategory":1,"la1":30.2991,"la2":30.254,"lo1":-89.0895,"lo2":-89.0444,"dy":0.0017,"dx":0.0017,"nx":28,"ny":28,"refTime":"2024-03-01T09:00:00:Z","depth":0,"parameterNumber":3,"parameterNumberName":"V-component_of_WINDS"},"data":[0,0,0,0,0,0,0,0,0,0,0,0,0,0,0,0,0,0,0,0,0,0,0,0,0,0,0,0,0,0,0,0,0,0,0,0,0,0,0,0,0,0,0,0,0,0,0,0,0,0,0,0,0,0,0,0,0,0,-3.2786,-3.2786,0,-3.2797,-3.2797,-3.2797,-3.2753,-3.2752,-3.2751,-3.2749,-3.2758,-3.276,-3.2761,0,0,0,0,0,0,0,0,0,0,0,0,0,-3.2724,-3.2726,-3.2786,-3.2786,-3.2786,-3.2797,-3.2797,-3.2797,-3.2754,-3.2752,-3.275,-3.2749,-3.2758,-3.2759,-3.2761,0,0,0,0,0,0,0,0,0,0,0,0,0,-3.2745,-3.2726,-3.2786,-3.2766,-3.2764,-3.2797,-3.2797,-3.2797,-3.2754,-3.2752,-3.275,-3.2748,-3.2757,-3.2759,-3.2761,-3.2813,0,0,-3.2768,-3.2769,0,0,0,0,0,0,0,0,-3.2744,-3.2747,-3.2768,-3.2767,-3.2765,-3.2772,-3.2779,-3.2803,-3.2754,-3.2758,-3.2749,-3.2747,-3.2764,-3.2766,-3.2772,-3.2814,-3.2814,-3.2768,-3.2769,-3.277,-3.2771,0,0,0,0,0,0,0,-3.2742,-3.2746,-3.279,-3.2769,-3.2767,-3.2755,-3.2756,-3.2783,-3.2771,-3.2757,-3.2754,-3.2756,-3.2763,-3.277,-3.2772,-3.2814,-3.2768,-3.277,-3.2771,-3.2772,-3.29,-3.2902,0,0,0,0,0,0,-3.2744,-3.2745,-3.279,-3.279,-3.275,-3.2758,-3.2759,-3.2772,-3.2771,-3.2769,-3.2758,-3.2754,-3.2767,-3.2769,-3.2772,-3.2833,-3.277,-3.2772,-3.2774,-3.2898,-3.2901,-3.2903,0,0,0,0,0,0,-3.2743,-3.2748,-3.2789,-3.2767,-3.2771,-3.2761,-3.2776,-3.2773,-3.278,-3.2772,-3.2769,-3.2767,-3.2766,-3.2769,-3.2804,-3.2833,-3.2773,-3.2775,-3.2896,-3.2899,-3.2902,-3.2956,0,0,0,0,0,0,-3.2741,-3.2748,-3.2768,-3.2768,-3.2773,-3.2822,-3.2778,-3.2774,-3.2784,-3.2779,-3.278,-3.2778,-3.2764,-3.2801,-3.2806,-3.2835,-3.2777,-3.2893,-3.2897,-3.2901,-3.2952,-3.2961,-3.2969,0,0,0,0,0,-3.2739,-3.2782,-3.2769,-3.2775,-3.2798,-3.2824,-3.2826,-3.2811,-3.2787,-3.2806,-3.2801,-3.2778,-3.2829,-3.2805,-3.281,-3.284,-3.2891,-3.2896,-3.2901,-3.2948,-3.2959,-3.2969,0,0,0,0,0,0,-3.2784,-3.2782,-3.2767,-3.2812,-3.2819,-3.2816,-3.284,-3.2823,-3.2835,-3.283,-3.2809,-3.281,-3.2849,-3.2848,-3.2821,-3.2891,-3.2856,-3.2862,-3.289,-3.2901,-3.2909,-3.2908,-3.2779,0,0,0,0,0,-3.28,-3.2822,-3.2818,-3.2857,-3.2862,-3.2851,-3.2861,-3.2849,-3.2854,-3.2857,-3.2854,-3.286,-3.2877,-3.2889,-3.2904,-3.2952,-3.2951,-3.2975,-3.2983,-3.299,-3.2996,-3.3022,-3.3032,-3.2919,-3.2919,-3.2919,0,0,-3.2831,-3.2833,-3.2847,-3.2867,-3.287,-3.2893,-3.2853,-3.2878,-3.2895,-3.286,-3.2893,-3.2892,-3.2897,-3.2939,-3.2957,-3.2939,-3.3027,-3.2997,-3.3002,-3.3004,-3.3028,-3.3038,-3.3048,-3.2922,-3.2921,-3.2921,0,0,-3.29,-3.2904,-3.2937,-3.2943,-3.2949,-3.2942,-3.295,-3.2951,-3.2949,-3.2982,-3.2957,-3.2976,-3.3006,-3.3011,-3.3017,-3.309,-3.3069,-3.3096,-3.314,-3.3165,-3.3174,-3.3182,-3.3208,-3.3218,-3.3101,-3.3101,-3.3101,0,-3.2938,-3.2973,-3.2957,-3.2985,-3.2994,-3.2965,-3.2999,-3.3004,-3.3015,-3.3022,-3.3002,-3.304,-3.3041,-3.3084,-3.3102,-3.3108,-3.3117,-3.3095,-3.3174,-3.3182,-3.3189,-3.3214,-3.3224,-3.3105,-3.3104,-3.3104,-3.3104,0,-3.3019,-3.3043,-3.307,-3.3083,-3.3095,-3.3126,-3.3114,-3.3128,-3.3115,-3.311,-3.3145,-3.3145,-3.3161,-3.317,-3.3157,-3.3211,-3.32,-3.3178,-3.3142,-3.3203,-3.3226,-3.3235,-3.3109,-3.3108,-3.3107,-3.3106,0,0,-3.3116,-3.3121,-3.3131,-3.3137,-3.3143,-3.3161,-3.3191,-3.3207,-3.322,-3.3229,-3.3253,-3.328,-3.3259,-3.3267,-3.3254,-3.3276,-3.3335,-3.3251,-3.3251,-3.3267,-3.3395,-3.3412,-3.3424,-3.3321,-3.3323,-3.3324,-3.3395,0,-3.3184,-3.3236,-3.3223,-3.3274,-3.3296,-3.327,-3.3296,-3.3302,-3.3298,-3.3316,-3.3311,-3.3331,-3.3302,-3.3307,-3.3328,-3.3323,-3.336,-3.3318,-3.3343,-3.3344,-3.3343,-3.3435,-3.3453,-3.352,-3.3404,-3.3405,-3.3406,0,-3.327,-3.3284,-3.3338,-3.3342,-3.335,-3.3374,-3.3389,-3.3406,-3.3413,-3.3408,-3.3418,-3.3401,-3.343,-3.3394,-3.3434,-3.3405,-3.3415,-3.3414,-3.3416,-3.3418,-3.3379,-3.344,-3.3541,-3.3551,-3.342,-3.3419,-3.3418,0,-3.3336,-3.3368,-3.3405,-3.341,-3.3416,-3.3433,-3.3436,-3.344,-3.3452,-3.3464,-3.3471,-3.3486,-3.3495,-3.3507,-3.3495,-3.347,-3.3536,-3.3499,-3.3533,-3.3533,-3.3547,-3.3547,-3.3652,-3.3554,-3.3554,-3.3554,-3.3553,0,-3.3413,-3.3447,-3.3434,-3.3457,-3.3494,-3.3479,-3.3516,-3.3516,-3.3521,-3.3542,-3.352,-3.354,-3.3523,-3.3542,-3.3532,-3.3567,-3.357,-3.3567,-3.3564,-3.357,-3.357,-3.3575,-3.357,-3.3556,-3.3556,-3.3555,-3.3555,0,-3.3492,-3.3485,-3.3523,-3.3526,-3.3527,-3.3555,-3.3557,-3.3577,-3.3572,-3.36,-3.3606,-3.3598,-3.3619,-3.3608,-3.363,-3.3623,-3.3668,-3.3659,-3.3666,-3.3664,-3.3698,-3.3695,-3.381,-3.3824,-3.3717,-3.3718,-3.3719,0,-3.3542,-3.3568,-3.3574,-3.3588,-3.3592,-3.3614,-3.3626,-3.3613,-3.3626,-3.3636,-3.3656,-3.3675,-3.369,-3.3725,-3.3721,-3.3737,-3.3728,-3.3768,-3.373,-3.3735,-3.3729,-3.3728,-3.3731,-3.3775,-3.3776,-3.3777,-3.3778,0,-3.3631,-3.3627,-3.3645,-3.3664,-3.3679,-3.3692,-3.3703,-3.3715,-3.3702,-3.3718,-3.374,-3.3752,-3.3775,-3.3795,-3.3809,-3.3811,-3.3793,-3.379,-3.3798,-3.3804,-3.3807,-3.3806,-3.3686,-3.3787,-3.3786,-3.3785,-3.3785,-3.3785,-3.3697,-3.3719,-3.3728,-3.3749,-3.3757,-3.3768,-3.3788,-3.3787,-3.3806,-3.3824,-3.3815,-3.3841,-3.3847,-3.3866,-3.387,-3.389,-3.3874,-3.3886,-3.389,-3.3893,-3.3898,-3.3804,-3.3892,-3.3892,-3.3892,-3.3892,-3.3891,0,-3.3785,-3.379,-3.381,-3.3828,-3.3845,-3.3828,-3.3839,-3.3854,-3.3878,-3.3887,-3.3902,-3.3928,-3.3948,-3.3946,-3.3964,-3.398,-3.3972,-3.3985,-3.3983,-3.3984,-3.3911,-3.3902,-3.3991,-3.3991,-3.3991,-3.3991,-3.3991,-3.3991,-3.3833,-3.387,-3.3867,-3.3908,-3.3912,-3.3938,-3.3947,-3.3957,-3.3964,-3.3994,-3.4011,-3.401,-3.4014,-3.4033,-3.405,-3.4048,-3.4056,-3.4072,-3.4068,-3.3999,-3.3989,-3.398,-3.3971,-3.4074,-3.4074,-3.414,-3.4141,-3.4141]}]]